McAllen, TX

1:25 AM CST on February 10, 2016 (GMT -0600)
McAllen Miller International

Weather History for KMFE - October, 2013

Change the Weather History Date:

Saturday, October 5, 2013

  Actual Average Record
Temperature  
Mean Temperature 84 °F 79 °F  
Max Temperature 94 °F 90 °F 97 °F (2009)
Min Temperature 73 °F 69 °F 51 °F (1975)
Degree Days  
Heating Degree Days 0 0  
Month to date heating degree days 0 0  
Since 1 July heating degree days 0 0  
Cooling Degree Days 19 14  
Month to date cooling degree days 97 74  
Year to date cooling degree days 4029 3873  
Growing Degree Days 33 (Base 50)    
Moisture  
Dew Point 71 °F    
Average Humidity 72    
Maximum Humidity 100    
Minimum Humidity 44    
Precipitation  
Precipitation 0.00 in 0.08 in 1.12 in (1976)
Month to date precipitation 0.00 0.42  
Year to date precipitation 12.16 18.46  
Sea Level Pressure  
Sea Level Pressure 29.87 in    
Wind  
Wind Speed 8 mph (SE)    
Max Wind Speed 17 mph    
Max Gust Speed 22 mph    
Visibility 10 miles    
Events      
T = Trace of Precipitation, MM = Missing Value Source: NWS Daily Summary

Daily Weather History Graph

Daily Weather History Graph

Search for Another Location

Airport or City:

Trip Planner

Search our weather history database for the weather conditions in past years. The results will help you decide how hot, cold, wet, or windy it might be!

Date:

Astronomy

Oct. 05, 2013 Rise Set
Actual Time 7:27 AM CDT 7:14 PM CDT
Civil Twilight 7:04 AM CDT 7:37 PM CDT
Nautical Twilight 6:37 AM CDT 8:04 PM CDT
Astronomical Twilight 6:10 AM CDT 8:31 PM CDT
Moon 8:01 AM CDT (10/5) 7:44 PM CDT (10/5)
Length of Visible Light 12h 33m
Length of Day
11h 47m
New Moon, 1% of the Moon is Illuminated
Oct 5
New Moon
Oct 11
First Quarter
Oct 18
Full
Oct 26
Last Quarter
Nov 3
New

Hourly Weather History & Observations

Time (CDT) Temp. Heat Index Dew Point Humidity Pressure Visibility Wind Dir Wind Speed Gust Speed Precip Events Conditions
12:53 AM 75.0 °F - 72.0 °F 90% 29.88 in 10.0 mi SE 5.8 mph - N/A   Clear
1:53 AM 75.0 °F - 72.0 °F 90% 29.87 in 8.0 mi SE 6.9 mph - N/A   Clear
2:53 AM 75.0 °F - 73.0 °F 94% 29.86 in 10.0 mi SSE 8.1 mph - N/A   Clear
3:53 AM 73.9 °F - 72.0 °F 93% 29.86 in 10.0 mi SE 4.6 mph - N/A   Clear
4:53 AM 73.0 °F - 72.0 °F 96% 29.85 in 10.0 mi SE 3.5 mph - N/A   Clear
5:53 AM 73.9 °F - 72.0 °F 93% 29.86 in 10.0 mi East 3.5 mph - N/A   Clear
6:53 AM 73.9 °F - 73.0 °F 97% 29.87 in 10.0 mi East 4.6 mph - N/A   Clear
7:53 AM 75.0 °F - 73.0 °F 94% 29.87 in 10.0 mi East 3.5 mph - N/A   Clear
8:53 AM 77.0 °F - 73.9 °F 90% 29.88 in 10.0 mi East 5.8 mph - N/A   Clear
9:53 AM 81.0 °F 86.2 °F 73.9 °F 79% 29.89 in 10.0 mi SE 11.5 mph - N/A   Clear
10:53 AM 84.9 °F 91.4 °F 73.0 °F 67% 29.90 in 10.0 mi SSE 9.2 mph 18.4 mph N/A   Clear
11:53 AM 88.0 °F 94.7 °F 72.0 °F 59% 29.89 in 10.0 mi SE 12.7 mph 18.4 mph N/A   Clear
12:53 PM 90.0 °F 96.4 °F 71.1 °F 54% 29.87 in 10.0 mi SE 17.3 mph - N/A   Scattered Clouds
1:53 PM 91.9 °F 97.4 °F 70.0 °F 48% 29.84 in 10.0 mi SE 13.8 mph 21.9 mph N/A   Clear
2:53 PM 93.0 °F 99.0 °F 70.0 °F 47% 29.82 in 10.0 mi SSE 11.5 mph - N/A   Partly Cloudy
3:53 PM 93.0 °F 99.0 °F 70.0 °F 47% 29.81 in 10.0 mi ESE 8.1 mph 18.4 mph N/A   Partly Cloudy
4:53 PM 93.0 °F 97.4 °F 68.0 °F 44% 29.81 in 10.0 mi SSE 10.4 mph - N/A   Scattered Clouds
5:53 PM 91.9 °F 94.5 °F 66.0 °F 42% 29.81 in 10.0 mi SE 6.9 mph - N/A   Clear
6:53 PM 89.1 °F 93.7 °F 69.1 °F 52% 29.83 in 10.0 mi East 10.4 mph - N/A   Partly Cloudy
7:53 PM 86.0 °F 90.1 °F 69.1 °F 57% 29.86 in 10.0 mi SE 9.2 mph - N/A   Clear
8:53 PM 82.9 °F 87.5 °F 71.1 °F 67% 29.88 in 10.0 mi SE 9.2 mph - N/A   Clear
9:53 PM 82.0 °F 87.4 °F 73.0 °F 74% 29.91 in 10.0 mi SE 9.2 mph - N/A   Clear
10:53 PM 80.1 °F 84.2 °F 73.0 °F 79% 29.93 in 10.0 mi SSE 6.9 mph - N/A   Clear
11:53 PM 78.1 °F - 73.0 °F 84% 29.93 in 10.0 mi South 4.6 mph - N/A   Clear